Regional Weather Roundup
Issued by NWS

Home | Current Version | Previous Version | Text Only | Print | Product List | Glossary On
Versions: 1 2 3 4 5 6 7 8 9 10 11 12 13 14 15 16 17 18 19 20 21 22 23 24 25 26 27 28 29 30 31 32 33 34 35 36 37 38 39 40 41 42 43 44 45 46 47 48 49 50
000
ASUS43 KLSX 260157
RWRMO

WEATHER SUMMARY FOR MISSOURI
NATIONAL WEATHER SERVICE SPRINGFIELD MO
900 PM CDT WED APR 25 2018

NOTE: "FAIR" INDICATES FEW OR NO CLOUDS BELOW 12,000 FEET WITH NO
       SIGNIFICANT WEATHER AND/OR OBSTRUCTIONS TO VISIBILITY.
       CURRENT SKY AND/OR WEATHER CONDITIONS ARE NOT AVAILABLE FOR
       CHILLICOTHE AND FARMINGTON.

MOZ001>031-035>038-043-044-053-054-260300-
...NORTHERN AND WESTERN MISSOURI...

CITY           SKY/WX    TMP DP  RH WIND       PRES   REMARKS
KANSAS CTY INT CLOUDY    49  46  90 NW3       30.06R
LEE`S SUMMIT   CLOUDY    50  49  96 N3        30.05R
ST JOSEPH      CLOUDY    51  41  68 W3        30.05F
CHILLICOTHE      N/A     50  47  89 CALM      30.05R

$$
MOZ066>068-077>081-088>096-101>105-260300-
...SOUTHWEST MISSOURI...

CITY           SKY/WX    TMP DP  RH WIND       PRES   REMARKS
SPRINGFIELD    LGT RAIN  52  50  93 NE8       29.98S FOG
JOPLIN         LGT RAIN  52  51  97 CALM      30.00R FOG
BRANSON        CLOUDY    50  50 100 CALM      29.99S FOG

$$
MOZ032>034-039>042-045>050-055>058-069>072-260300-
...CENTRAL MISSOURI...

CITY           SKY/WX    TMP DP  RH WIND       PRES   REMARKS
COLUMBIA       NOT AVBL
JEFFERSON CITY LGT RAIN  51  49  92 NW3       30.01S FOG
ROLLA          LGT RAIN  50  48  93 NW7       30.00S FOG
SEDALIA        CLOUDY    50  50 100 NW3       30.04R
WARRENSBURG    DRIZZLE   48  46  93 CALM      30.04R
OSAGE BEACH    LGT RAIN  50  48  93 CALM      30.02S FOG

$$
MOZ051-052-059>065-260300-
...EAST CENTRAL MISSOURI...

CITY           SKY/WX    TMP DP  RH WIND       PRES   REMARKS
ST LOUIS INTL  CLOUDY    60  49  66 NW8       29.97R

$$
MOZ072>076-082>087-097>100-106>115-260300-
...SOUTH CENTRAL AND SOUTHEAST MISSOURI...

CITY           SKY/WX    TMP DP  RH WIND       PRES   REMARKS
CAPE GIRARDEAU CLOUDY    62  50  64 NW9       29.93R
POPLAR BLUFF   CLOUDY    60  49  66 W6        29.95S
WEST PLAINS    LGT RAIN  52  50  93 N6        29.99R

$$




USA.gov is the U.S. government's official web portal to all federal, state and local government web resources and services.